Temp_Advection
nan nan nan nan nan nan nan nan nan nan nan nan nan nan nan nan nan nan nan nan nan nan nan nan nan nan nan nan nan nan nan nan nan nan nan nan nan nan nan nan nan nan nan nan nan
nan -0 -0 -0 -0 -0 -0 -0 0 0 0 0 0 0 0 -0 -0 0 -1 -0 0 0 0 -0 -0 -0 -0 -0 -0 -1 -0 -0 -0 0 0 0 0 0 -0 -0 0 0 -0 -0 nan
nan 0 0 0 0 0 -0 -0 -0 0 0 0 0 0 0 0 0 -0 -0 0 0 0 0 0 0 -0 -0 -0 -0 -0 -0 -0 0 0 0 -0 -0 -0 -0 0 0 0 -0 -0 nan
nan 0 0 0 0 0 0 0 0 0 0 0 0 0 0 -1 -0 0 0 0 0 0 0 -0 -0 -0 -0 -0 -0 -0 -1 -0 0 0 0 0 -0 -0 -0 -0 0 0 -0 -0 nan
nan 0 -0 -0 -0 -0 -0 -0 0 0 0 0 0 0 0 -0 -1 -0 0 0 0 0 -0 -0 -0 -0 -0 -0 0 -0 -0 -0 0 0 0 0 -0 -0 -0 -0 -0 0 0 0 nan
nan -0 -0 -0 -0 -0 -0 -0 -0 0 0 0 0 1 -0 -1 -0 0 0 1 1 0 -0 -0 -0 0 -0 -0 -0 -0 0 0 -0 -0 0 -0 -0 -0 -0 -0 0 0 0 0 nan
nan -0 -0 -0 -0 -0 -0 -0 -0 -0 0 0 1 1 -0 -2 0 0 0 1 0 -0 0 0 0 0 -0 -0 0 0 -1 -1 -1 -0 0 0 -0 -1 -1 -0 0 0 0 -0 nan
nan -0 -0 -0 0 0 0 -0 -0 -0 -0 0 1 1 -1 -0 0 0 0 0 0 0 0 0 0 -0 -0 -0 -0 -0 -0 -0 -0 0 0 0 -1 -1 0 0 0 -0 0 -0 nan
nan -1 -0 -0 -0 -0 0 0 -0 -0 -1 0 1 -0 -1 0 0 0 -0 -0 0 0 0 0 -0 -1 -0 -0 -1 -1 -0 -1 0 0 0 -0 -1 -0 0 0 0 -0 -0 0 nan
nan -1 -1 -1 -1 -1 -0 0 -0 0 0 0 -0 -1 -1 0 0 0 0 0 -0 -0 -0 -0 -1 -0 -0 -1 -1 -0 -0 -0 -0 0 0 0 -1 -1 0 0 0 0 0 -0 nan
nan -1 -1 -1 -1 -1 -1 -0 -0 0 -0 -1 -0 0 0 0 -0 0 0 -0 -0 -0 -1 -1 -0 -1 -1 -1 -0 -0 -0 -1 -1 -0 0 -0 -1 -1 -0 0 1 1 0 -0 nan
nan -1 -0 -0 -1 -0 -0 -0 0 -0 -1 -1 -0 0 0 0 0 -0 0 -0 -1 -1 -1 0 -0 -2 -1 0 0 0 -0 -1 0 -0 -0 -1 -1 -1 -1 0 0 0 0 -0 nan
nan -1 -1 -0 -0 -0 -0 -0 0 -0 -1 -0 0 0 0 0 -0 0 0 -1 -0 -0 -0 -0 -0 0 -0 1 0 -0 -1 -1 -1 -0 0 -0 -2 -0 -0 -0 0 -0 -0 -0 nan
nan -1 -1 -0 -0 -0 0 -0 -0 -0 -1 -0 -0 0 -0 -0 -0 0 -0 -0 0 -0 -0 -0 -0 1 0 -0 -0 -0 -0 0 0 -0 -0 -0 -1 -3 -0 0 -0 0 0 -0 nan
nan -2 -1 -1 0 -0 -0 -0 0 0 -1 -0 -0 -0 -0 -0 -0 0 -0 0 -0 -0 0 0 0 0 -0 -1 0 0 -0 -0 0 0 -1 0 -0 -1 -1 0 -0 -0 0 -0 nan
nan -2 -1 -1 -0 -0 -0 -0 0 -0 -1 0 -0 0 -0 -0 -0 -0 -0 -0 -0 -0 0 0 0 -0 -0 0 1 -0 0 0 0 0 -1 -1 -0 -0 -1 -0 -0 -0 -0 0 nan
nan -0 -1 -1 -0 -0 -0 -0 -0 -1 0 -0 -0 -0 -0 -0 0 -0 -0 -0 -0 -0 -0 -0 -0 -0 0 0 0 0 0 0 0 -0 0 -0 -0 -1 -1 0 0 -0 -0 0 nan
nan -0 -0 0 0 -0 -0 -0 -0 -0 -1 -1 -0 -1 -0 -0 0 0 0 -0 0 1 0 -0 -0 -0 0 -0 -0 -0 0 -0 -0 -1 0 -1 -1 -1 -0 -0 0 0 -0 0 nan
nan -0 0 0 0 0 -0 -0 -0 -1 -0 -1 -1 -0 0 0 -0 -0 0 0 -1 -1 -0 -1 0 0 -0 0 0 0 -0 0 0 0 -0 -1 -1 -1 0 0 0 -0 -0 -0 nan
nan 0 -0 -0 0 -0 -0 0 -0 -0 -0 -0 -0 -0 -0 -0 -0 -1 0 -1 -0 -1 -1 -1 -2 -1 1 1 -0 -0 0 0 -0 -0 -1 -1 -0 -0 -0 0 0 -0 -0 -0 nan
nan 0 -0 -0 0 -0 0 -0 -0 0 -0 -0 -0 -0 -1 -1 -1 -1 0 -1 -1 -1 -1 -1 -1 -0 0 -0 -0 0 -0 -1 -0 -0 -0 -1 -0 -0 0 0 -0 -0 -0 -0 nan
nan -0 -0 -0 -0 -0 -0 -0 -0 -0 -0 -0 -0 0 -0 -0 -0 -1 -0 0 -0 -0 -0 -0 -0 -1 -3 -1 0 0 0 0 0 -1 -0 0 -1 0 0 0 0 0 0 -0 nan
nan -0 -0 -0 -0 -0 -0 0 0 -0 -0 -0 -0 -0 0 0 -0 -0 -0 -0 0 0 0 0 0 -1 -2 -0 1 0 -1 -1 -1 1 1 0 -1 -0 -0 0 0 0 0 0 nan
nan -0 -0 -0 -0 -0 -0 -0 -0 -0 0 -0 -0 -0 0 -0 0 0 -1 -1 0 0 0 0 0 0 -1 -2 -1 -0 -1 -1 -2 -1 -2 -1 -2 -1 0 0 -0 0 0 -0 nan
nan -0 -0 -0 -0 0 0 -0 -0 -0 -0 0 -0 -0 0 -0 -1 -0 -1 -1 -0 0 0 1 0 -1 -0 -0 -1 0 -0 1 1 -0 -1 -4 -3 -1 -1 -0 -0 -0 0 0 nan
nan -0 -0 -1 -0 -0 0 0 -0 -0 -0 0 -0 -0 0 -0 0 -0 -1 -0 -1 -0 -0 1 0 -0 -1 -1 -0 -1 -1 -0 -0 0 -0 -1 -4 -6 -3 0 1 0 0 0 nan
nan nan nan nan nan nan nan nan nan nan nan nan nan nan nan nan nan nan nan nan nan nan nan nan nan nan nan nan nan nan nan nan nan nan nan nan nan nan nan nan nan nan nan nan nan
Wind_Speed
9 9 9 9 10 11 13 14 15 15 16 16 16 16 16 16 16 15 13 11 12 11 7 4 3 2 3 4 4 3 6 8 10 9 9 5 11 11 11 18 18 19 24 22 23
10 10 10 11 11 12 12 13 15 15 15 15 16 16 17 18 20 22 16 13 12 8 5 6 6 5 5 6 5 8 9 9 5 8 12 15 15 18 17 20 23 25 26 24 21
10 10 11 11 12 12 13 14 14 14 15 15 15 15 16 16 16 4 9 10 9 7 7 6 6 6 9 8 12 8 8 7 9 14 16 19 20 21 20 21 23 25 26 25 21
11 11 12 12 13 14 14 15 15 15 15 14 15 15 14 10 7 7 9 7 7 7 8 6 6 7 7 10 11 10 18 19 19 19 19 18 22 22 23 30 25 25 25 26 24
13 13 14 15 15 16 16 17 17 16 15 15 16 15 12 8 14 17 14 10 8 9 10 9 10 9 8 7 10 17 19 21 20 18 21 24 23 25 33 31 30 27 26 28 25
17 17 17 18 18 19 19 19 19 18 18 19 18 16 10 12 12 15 13 12 10 10 10 11 6 8 11 13 12 10 14 20 24 26 26 23 25 24 30 18 17 19 26 26 25
21 21 20 21 21 21 22 22 22 21 21 21 19 15 13 24 13 10 14 11 11 10 10 10 9 8 3 8 12 16 18 19 21 21 11 9 17 19 27 22 23 17 18 18 25
24 25 25 25 25 25 25 25 25 24 23 22 18 9 11 16 11 14 13 10 10 9 8 8 8 9 11 9 8 10 11 8 7 5 7 4 16 18 13 16 20 20 20 17 22
26 27 28 28 29 28 27 26 26 24 22 19 9 8 9 11 12 15 15 11 10 8 7 5 6 9 7 8 10 10 9 12 11 1 4 10 19 9 10 16 22 25 27 20 16
24 24 25 24 25 25 26 22 22 19 13 6 6 6 12 7 8 14 16 13 11 10 6 9 8 9 9 10 8 7 11 14 13 4 10 19 28 25 25 23 30 33 35 28 21
22 23 23 22 22 22 21 10 5 5 9 12 8 11 1 5 5 10 17 16 11 15 11 16 10 14 16 18 19 17 14 18 17 15 13 18 23 27 23 24 25 28 29 25 21
22 23 22 21 21 18 9 3 4 7 13 22 30 30 27 15 10 11 18 18 16 17 16 12 17 20 20 17 13 15 17 19 12 1 7 19 30 30 21 7 14 20 27 26 22
25 25 24 21 19 7 3 3 5 7 8 9 10 7 5 15 17 17 21 23 12 17 18 19 15 4 11 18 14 15 16 17 17 17 15 12 18 11 1 4 9 12 18 18 19
25 26 24 19 9 8 2 5 6 4 6 4 4 2 0 3 6 9 20 14 13 12 16 15 22 24 10 14 13 13 8 9 11 8 5 11 11 16 7 4 6 8 10 14 14
28 26 22 13 10 3 7 6 3 2 6 5 3 3 3 5 2 5 11 15 14 10 8 8 9 11 18 22 14 9 1 6 7 10 13 10 6 9 15 4 5 4 5 8 10
29 20 18 12 8 6 3 2 0 3 8 2 3 2 3 7 3 4 8 8 3 14 16 21 3 6 14 8 10 3 4 6 5 5 7 15 14 4 8 4 7 5 3 5 6
24 15 19 16 9 5 1 1 3 6 3 4 5 8 11 4 4 7 10 10 8 5 11 13 24 17 12 10 9 10 7 3 5 4 7 3 4 12 16 6 4 4 2 3 4
19 12 16 18 15 7 1 5 8 1 5 8 7 15 6 7 0 3 6 11 16 16 9 7 9 17 16 19 11 20 15 6 7 8 6 5 8 5 1 2 6 2 1 3 7
20 10 16 13 13 1 5 5 4 6 6 11 15 6 5 3 6 4 8 8 7 13 5 8 13 3 8 12 17 10 15 14 15 15 6 9 13 15 17 12 8 4 8 12 11
21 7 16 18 8 3 6 4 2 6 10 7 6 4 6 8 8 6 7 6 7 11 13 7 13 13 14 7 11 11 7 8 7 6 11 10 13 8 3 6 7 11 14 11 8
15 7 19 13 6 6 4 4 3 4 9 7 9 9 13 11 9 11 9 7 14 15 12 11 5 7 5 10 13 10 12 11 9 12 11 13 8 9 8 10 11 12 15 8 5
14 5 20 11 4 3 3 6 8 6 6 6 7 9 5 6 8 13 9 8 13 14 9 6 6 8 20 16 12 18 19 21 11 17 11 12 15 3 1 4 9 11 14 7 5
15 8 13 16 4 6 7 6 3 7 8 6 6 4 11 13 9 8 12 12 22 10 5 8 3 7 10 15 16 9 16 20 19 17 22 15 10 12 4 4 5 8 10 7 4
10 4 10 6 4 5 7 6 9 5 7 5 9 13 12 11 12 11 17 17 18 15 18 14 12 16 14 21 21 18 15 19 14 6 17 20 24 18 13 7 4 9 10 8 6
4 3 2 6 8 11 6 10 12 12 10 14 10 12 13 11 16 17 18 17 19 22 18 12 15 18 20 21 25 27 27 28 21 18 9 18 24 24 21 13 10 3 5 11 12
5 4 3 13 10 11 11 9 15 15 14 15 16 16 15 18 17 18 19 19 20 17 18 19 17 20 24 25 25 29 28 28 29 27 25 28 26 26 21 27 24 5 11 10 10
8 7 7 7 10 8 11 14 16 18 18 20 19 17 18 18 22 23 24 27 24 22 21 20 17 19 24 28 25 24 25 29 28 25 24 25 26 25 23 15 18 15 17 14 13
Wind_Direction
8 360 352 343 332 321 313 307 302 300 300 301 302 304 305 305 304 299 270 244 240 267 250 235 206 229 208 225 228 253 251 261 271 278 286 266 278 277 272 275 268 263 264 270 279
2 356 351 348 345 340 331 321 311 306 305 304 302 302 303 307 307 287 254 240 261 254 213 208 212 206 220 228 219 229 245 276 313 300 285 289 286 287 284 273 267 266 264 264 266
353 350 346 342 338 336 334 330 323 314 306 303 305 308 308 314 313 274 180 213 244 225 201 207 203 211 234 233 223 222 249 279 292 280 284 282 282 279 274 269 265 267 269 261 256
339 336 334 332 332 331 329 329 325 318 310 303 299 301 306 312 301 262 214 242 233 206 192 193 204 216 245 223 231 256 251 266 277 279 275 272 282 277 272 270 274 272 271 261 257
324 323 325 325 325 325 325 325 325 321 316 311 305 302 302 264 257 268 242 245 223 204 197 206 223 239 253 249 263 250 265 277 279 280 272 275 267 271 272 272 271 266 262 258 256
324 322 321 320 320 317 317 317 318 316 311 307 299 291 281 252 249 263 237 225 210 204 212 212 228 245 276 266 256 288 291 280 279 277 276 269 271 266 263 272 266 263 256 255 250
321 319 318 317 315 312 312 312 312 311 310 306 298 283 258 250 265 231 220 219 206 207 223 223 234 225 306 260 268 279 285 283 269 266 269 293 268 249 261 262 261 259 258 257 255
321 318 317 314 311 308 308 308 308 309 306 302 294 263 253 255 240 208 205 208 209 212 218 222 219 243 247 278 281 258 268 282 131 202 237 218 273 290 267 243 247 255 254 260 259
319 315 313 313 309 306 302 300 300 302 298 295 275 221 260 259 229 216 205 204 199 204 211 215 216 237 217 245 279 221 272 268 300 345 289 221 288 284 289 269 253 256 256 257 253
319 317 316 317 311 310 305 298 300 297 288 280 237 237 233 242 203 196 198 200 189 194 203 214 230 238 221 224 235 283 249 274 283 276 247 270 274 283 278 268 256 257 260 258 247
323 318 318 320 317 316 315 324 320 258 230 222 227 248 256 225 220 193 191 187 201 201 213 200 228 229 243 232 254 287 285 281 288 301 306 284 290 293 290 277 257 248 248 246 238
324 318 316 319 319 319 320 318 263 281 294 264 263 259 259 252 247 207 185 188 197 215 223 225 242 253 265 263 267 264 271 278 287 137 280 296 296 291 286 253 268 262 237 234 229
326 319 320 321 318 315 331 302 301 312 265 272 255 263 244 210 229 215 196 208 205 229 229 233 239 322 265 236 245 248 256 277 295 315 292 312 294 332 170 162 237 266 234 234 229
332 324 323 320 314 317 264 291 311 326 280 213 168 169 122 184 224 224 203 197 213 241 233 254 253 248 241 237 233 260 271 284 285 306 297 349 293 296 309 304 195 236 215 230 225
338 331 330 327 293 333 263 299 295 359 289 62 111 154 187 217 109 193 210 211 239 210 211 228 229 229 238 242 239 236 316 276 287 286 299 270 275 278 288 263 100 114 287 226 218
344 343 350 348 338 299 262 306 114 228 247 108 87 3 275 208 197 131 184 223 289 257 243 255 211 244 232 241 223 43 216 242 269 283 262 247 236 270 290 55 152 105 71 121 165
349 354 6 5 328 301 265 309 235 229 80 44 344 352 325 274 231 211 191 200 216 216 229 247 242 227 229 233 201 212 226 257 239 223 260 23 230 253 296 210 238 301 119 282 239
353 6 6 2 351 330 233 221 236 287 15 7 334 305 268 6 130 266 248 242 220 248 278 263 260 204 203 218 199 209 201 210 252 243 257 152 235 246 253 44 146 138 12 166 170
355 358 356 350 354 31 239 225 322 19 339 331 319 295 206 176 343 305 232 303 47 27 280 282 247 88 192 214 224 210 221 227 269 273 266 240 243 265 262 227 222 177 127 118 114
348 346 349 346 344 339 252 247 14 14 331 321 300 307 299 314 330 336 288 39 3 9 330 308 281 264 244 205 245 247 211 183 223 229 232 249 248 249 244 230 194 160 149 128 100
349 320 355 2 353 283 283 8 337 333 358 327 325 305 309 322 312 301 278 77 24 352 337 353 271 254 164 213 218 200 222 215 237 225 241 260 261 206 256 237 180 166 158 138 87
353 320 340 1 28 359 13 343 333 318 325 316 302 289 312 311 304 289 278 322 357 349 346 21 309 277 257 250 238 248 226 230 233 231 234 264 263 73 184 150 165 162 163 136 59
341 314 343 6 17 353 1 315 306 323 339 332 305 320 318 301 301 291 303 300 313 311 329 349 321 314 264 244 250 264 274 264 268 249 246 234 244 208 150 210 213 200 196 174 17
331 327 352 358 50 336 341 326 320 299 297 297 294 296 289 290 304 290 287 295 298 292 297 289 268 256 272 294 310 296 297 307 307 293 263 245 258 248 257 257 219 215 219 208 346
343 22 323 316 329 321 281 296 302 308 317 305 295 293 307 301 295 290 293 299 296 292 284 265 264 268 271 277 282 286 283 284 275 277 281 286 271 244 249 233 201 123 223 248 283
310 329 267 287 296 299 294 265 293 293 305 296 289 287 299 293 288 297 300 295 297 299 282 273 275 278 275 275 277 279 277 276 273 267 268 273 278 278 267 241 255 267 277 281 290
278 302 272 269 294 286 289 300 298 296 299 289 285 294 280 280 293 297 294 283 282 283 278 275 273 271 270 268 272 269 269 270 266 264 261 266 269 287 279 248 269 258 269 284 286
Height
1528 1526 1524 1522 1521 1519 1517 1515 1514 1512 1511 1509 1508 1506 1504 1502 1500 1498 1496 1497 1495 1493 1494 1494 1495 1496 1496 1496 1497 1496 1490 1477 1470 1472 1469 1473 1475 1475 1475 1473 1471 1471 1468 1468 1465
1528 1526 1524 1522 1520 1518 1516 1514 1512 1510 1508 1507 1505 1504 1502 1499 1495 1491 1492 1492 1492 1491 1492 1494 1495 1495 1495 1495 1495 1493 1482 1472 1470 1472 1472 1472 1473 1472 1473 1469 1466 1465 1465 1465 1464
1528 1526 1524 1521 1519 1517 1514 1512 1510 1508 1506 1504 1503 1501 1500 1498 1494 1487 1485 1488 1489 1489 1491 1493 1494 1495 1493 1492 1490 1485 1478 1469 1472 1474 1474 1472 1471 1470 1468 1461 1462 1461 1461 1460 1459
1527 1525 1523 1520 1518 1516 1513 1511 1508 1506 1504 1502 1500 1498 1497 1497 1494 1486 1486 1486 1487 1487 1489 1491 1493 1493 1490 1486 1484 1482 1475 1473 1471 1472 1471 1469 1467 1463 1463 1457 1458 1457 1456 1455 1455
1526 1523 1521 1518 1516 1513 1511 1508 1506 1503 1501 1499 1497 1496 1495 1496 1489 1483 1484 1485 1485 1486 1488 1490 1490 1489 1486 1481 1481 1477 1473 1470 1469 1468 1467 1465 1462 1460 1452 1454 1452 1451 1450 1450 1453
1524 1522 1519 1516 1514 1511 1508 1505 1503 1500 1498 1496 1494 1493 1492 1492 1482 1481 1481 1482 1484 1485 1487 1488 1487 1487 1485 1482 1480 1471 1470 1467 1465 1461 1459 1457 1453 1455 1443 1446 1444 1444 1442 1444 1446
1522 1519 1516 1513 1510 1507 1505 1502 1499 1497 1494 1492 1491 1489 1488 1480 1478 1478 1479 1480 1482 1484 1485 1486 1486 1487 1484 1479 1476 1475 1470 1462 1454 1452 1451 1453 1447 1440 1439 1439 1438 1439 1436 1439 1436
1519 1516 1513 1510 1507 1503 1501 1498 1494 1492 1490 1487 1486 1486 1481 1473 1475 1476 1477 1479 1480 1482 1483 1483 1483 1484 1482 1480 1474 1470 1465 1456 1444 1449 1450 1455 1434 1431 1431 1433 1433 1433 1432 1433 1430
1515 1511 1507 1505 1501 1498 1496 1492 1490 1487 1485 1483 1483 1484 1476 1468 1469 1470 1474 1477 1479 1480 1481 1482 1483 1481 1479 1478 1469 1457 1454 1442 1439 1444 1447 1448 1430 1427 1429 1430 1428 1427 1424 1426 1427
1510 1506 1502 1499 1495 1491 1488 1486 1483 1481 1480 1480 1480 1485 1471 1467 1465 1466 1470 1474 1476 1478 1481 1481 1480 1475 1472 1469 1463 1445 1445 1439 1439 1438 1440 1437 1425 1421 1422 1421 1418 1418 1417 1420 1423
1507 1502 1498 1495 1491 1487 1484 1483 1484 1482 1477 1472 1468 1463 1466 1465 1464 1465 1467 1470 1473 1475 1473 1474 1473 1464 1457 1457 1454 1451 1452 1447 1437 1435 1438 1431 1419 1410 1411 1408 1405 1407 1412 1415 1418
1503 1499 1495 1492 1488 1485 1483 1484 1481 1481 1472 1464 1459 1458 1459 1463 1462 1463 1466 1468 1467 1465 1467 1467 1464 1458 1455 1451 1453 1453 1452 1443 1434 1439 1441 1429 1414 1405 1398 1398 1401 1397 1402 1410 1416
1501 1496 1492 1489 1486 1484 1483 1483 1480 1480 1474 1455 1453 1454 1454 1455 1455 1455 1461 1461 1459 1459 1458 1457 1451 1454 1452 1450 1455 1450 1449 1442 1440 1435 1433 1428 1407 1386 1392 1399 1399 1395 1395 1402 1407
1499 1493 1489 1486 1486 1483 1483 1481 1480 1480 1471 1447 1450 1452 1453 1454 1454 1455 1456 1458 1456 1454 1453 1449 1447 1447 1451 1450 1448 1449 1439 1441 1443 1445 1440 1431 1423 1401 1386 1393 1396 1395 1395 1395 1399
1496 1490 1486 1482 1482 1483 1483 1481 1480 1480 1470 1448 1451 1452 1451 1453 1454 1454 1455 1457 1452 1449 1449 1443 1441 1444 1444 1442 1443 1446 1445 1445 1443 1445 1442 1433 1436 1398 1385 1387 1395 1395 1395 1394 1395
1494 1488 1484 1482 1481 1480 1480 1481 1482 1478 1464 1446 1450 1450 1449 1449 1450 1453 1455 1457 1454 1451 1447 1441 1443 1442 1438 1438 1441 1445 1447 1445 1444 1449 1445 1420 1420 1399 1384 1385 1392 1392 1396 1396 1396
1494 1490 1486 1483 1483 1479 1479 1482 1481 1469 1442 1452 1453 1454 1451 1446 1446 1448 1449 1450 1448 1453 1443 1432 1432 1434 1439 1441 1443 1444 1444 1448 1445 1453 1431 1436 1422 1395 1384 1387 1390 1392 1395 1396 1396
1494 1491 1489 1485 1482 1479 1480 1480 1473 1449 1456 1462 1459 1453 1449 1451 1444 1446 1443 1443 1439 1439 1440 1433 1427 1424 1427 1429 1427 1433 1433 1431 1429 1419 1410 1430 1417 1388 1382 1385 1390 1393 1395 1395 1396
1495 1493 1492 1485 1481 1478 1482 1475 1459 1474 1479 1472 1460 1448 1439 1450 1454 1445 1440 1441 1449 1451 1448 1424 1415 1416 1419 1421 1424 1422 1429 1424 1426 1419 1427 1397 1390 1380 1375 1380 1385 1389 1394 1395 1397
1495 1492 1491 1485 1483 1481 1477 1467 1476 1485 1484 1476 1467 1455 1450 1447 1457 1448 1444 1461 1461 1462 1462 1445 1429 1415 1414 1424 1422 1419 1418 1433 1431 1427 1415 1390 1383 1382 1377 1376 1380 1386 1391 1395 1397
1499 1494 1491 1485 1482 1480 1475 1482 1484 1484 1486 1481 1471 1471 1466 1470 1467 1464 1452 1469 1469 1467 1462 1459 1446 1419 1422 1419 1415 1423 1418 1412 1408 1407 1400 1392 1379 1371 1376 1374 1378 1383 1387 1392 1394
1503 1496 1493 1487 1488 1485 1482 1491 1490 1485 1485 1483 1480 1474 1475 1476 1475 1471 1465 1469 1474 1474 1468 1467 1465 1441 1416 1409 1409 1408 1409 1407 1406 1400 1393 1395 1387 1376 1376 1378 1379 1383 1386 1390 1392
1508 1501 1498 1492 1488 1487 1489 1490 1490 1488 1486 1484 1482 1478 1478 1476 1478 1468 1469 1471 1471 1473 1472 1469 1464 1456 1420 1413 1410 1416 1413 1407 1400 1394 1393 1391 1382 1372 1379 1383 1384 1384 1387 1390 1390
1509 1503 1500 1498 1498 1498 1494 1488 1488 1487 1487 1485 1483 1480 1477 1474 1475 1474 1472 1470 1471 1471 1470 1470 1467 1466 1458 1435 1438 1445 1439 1439 1441 1429 1396 1384 1377 1374 1375 1381 1382 1384 1386 1389 1389
1510 1506 1508 1501 1496 1495 1494 1492 1488 1485 1484 1483 1480 1477 1476 1479 1474 1470 1467 1465 1465 1465 1464 1463 1464 1457 1451 1449 1444 1436 1436 1429 1438 1436 1434 1398 1382 1377 1375 1376 1378 1381 1385 1387 1388
1511 1509 1507 1504 1499 1495 1491 1489 1488 1484 1484 1481 1479 1477 1479 1475 1472 1470 1468 1466 1461 1461 1460 1459 1457 1454 1450 1444 1441 1431 1426 1425 1417 1417 1423 1414 1402 1386 1371 1369 1373 1379 1385 1385 1385
1506 1505 1505 1499 1494 1493 1489 1486 1485 1483 1482 1480 1478 1477 1474 1472 1471 1469 1467 1464 1458 1457 1454 1453 1452 1449 1442 1433 1434 1427 1417 1407 1403 1402 1409 1403 1396 1391 1376 1375 1375 1377 1381 1381 1382